FENGYUN 1C DEB

Satellite information

Favourite Embed

Satellite Type and Status

DEBRISIN ORBIT

Key statistics

Satellite FENGYUN 1C DEB at a glance.

Uptime

9715

Days in orbit

Revolutions

≈ 14.5

Per day

Orbit

SSO

Sun Synchronous Orbit

Inclination

99.0

Latest

Satellite identification and parameters

Extended collection of information and parameters for FENGYUN 1C DEB.

Object identification

Identified? True

Debris? True

Object name: FENGYUN 1C DEB

International designator: 1999-025BFR

Object number (NORAD): 31071

Object ID (CCSDS): 31071

Country: PEOPLES REPUBLIC OF CHINA (PRC)

Current information (Y/N): Y

RCS size: SMALL

Orbital parameters

Period: 99.132 minutes

Inclination: 99.0415 deg

SMA: 7095.26 km

Apoapsis: 756.551 km

Periapsis: 677.699 km

RAAN: 63.1415 deg

Eccentricy: 0.00555669

Argument of periapsis: 285.5225 deg

Mean anomaly: 73.9837 deg

Mean motion: 14.52614278 rev/day

Mean motion (dot): 0.00008368 rev/day2

B* drag term: 0.0020144701 1/REarth

Two-line elements (TLE)

Creation date: Dec. 11, 2025, 7:14 p.m.

Reference frame: TEME

Reference center: EARTH

Epoch: Dec. 11, 2025, 11:47 a.m. UTC

TLE line 0: 0 FENGYUN 1C DEB

TLE line 1: 1 31071U 99025BFR 25345.49114181 .00008368 00000-0 20145-2 0 9994

TLE line 2: 2 31071 99.0415 63.1415 0055567 285.5225 73.9837 14.52614278654764

Live tracking on map

Real-time ground track for satellite FENGYUN 1C DEB.

In-orbit conjunctions

A list of the most updated potential collisions computed for object FENGYUN 1C DEB.

Target Orbit TCA Probability of collision Miss distance Type
CZ-4B DEB SSO 2025-09-23 12:14:44 0.0003131271 6.0 (m) DEBRIS
COSMOS 2251 DEB LEO 2025-02-23 16:39:56 0.0001417713 425.0 (m) DEBRIS

Associated space launch

Chinese polar orbiting meteorological satellite

FENGYUN 1C DEB was lifted into orbit during the mission ‘Long March 4B | Feng Yun 1C’, on board a Long March 4B space rocket.

The launch took place on May 10, 1999, 1:33 a.m. from Launch Complex 7.

For more information about the launch, click the button.

Launch to space Long March 4B | Feng Yun 1C
Long March 4B | Feng Yun 1C

Agency: N/A

Status: Launch Successful

Launch date: May 10, 1999, 1:33 a.m. UTC

Rocket: Long March 4B

Launch pad: Launch Complex 7

Location: Taiyuan Satellite Launch Center, People's Republic of China

...

Latest news about this satellite

There are no fresh news available about this satellite. Check back as we update our databases every day.


Newsletter sign-up

Weekly statistics, charts and insights to help you stay on top of the space industry.